Location: *
(60.1759°S, 155.0663°W)
Time: 16:41:29
(UTC+00:00)

Cosmos 1515 - Pass Details

Date: 17 September 2019
Orbit: 507 x 516 km, 82.5° (Epoch: 13 October)

Event Time Altitude Azimuth Distance (km) Brightness Sun altitude
Rises 15:27:47 0° 197° (SSW) 2,673 7.2 -7.7°
Reaches altitude 10° 15:29:59 10° 202° (SSW) 1,777 6.3 -7.5°
Maximum altitude 15:33:45 50° 276° (W) 678 3.9 -7.0°
Drops below altitude 10° 15:37:29 10° 352° (N) 1,754 6.2 -6.5°
Sets 15:39:38 0° 357° (N) 2,633 7.2 -6.3°
